Weather History for Metropolis, IL

Change the Weather History Date:

Saturday, May 25, 2013

  Actual Average (KPAH) Record (KPAH)
Temperature  
Mean Temperature 60 °F 70 °F  
Max Temperature 76 °F 80 °F 93 °F (2012)
Min Temperature 45 °F 59 °F 43 °F (1992)
Degree Days  
Heating Degree Days 4 1  
Month to date heating degree days 59  
Since 1 July heating degree days 4123  
Cooling Degree Days 0 6  
Month to date cooling degree days 91  
Year to date cooling degree days 133  
Growing Degree Days 10 (Base 50)    
Moisture  
Dew Point 48 °F    
Average Humidity 66    
Maximum Humidity 100    
Minimum Humidity 33    
Precipitation  
Precipitation 0.00 in 0.14 in 3.78 in (1946)
Month to date precipitation 4.06  
Year to date precipitation 20.34  
Snow  
Snow 0.00 in 0.00 in 0.00 in (2002)
Month to date snowfall 0.0  
Since 1 July snowfall 9.1  
Snow Depth -    
Sea Level Pressure  
Sea Level Pressure 30.26 in    
Wind  
Wind Speed 1 mph (SE)    
Max Wind Speed 7 mph    
Max Gust Speed -    
Visibility 10 miles    
Events      
T = Trace of Precipitation, MM = Missing Value Source: NWS Daily Summary

Daily Weather History Graph

Daily Weather History Graph

Search for Another Location

Airport:

Trip Planner

Search our weather history database for the weather conditions in past years. The results will help you decide how hot, cold, wet, or windy it might be!

Date:

Astronomy

May. 25, 2013 Rise Set
Actual Time 5:39 AM CDT 8:04 PM CDT
Civil Twilight 5:09 AM CDT 8:34 PM CDT
Nautical Twilight 4:32 AM CDT 9:11 PM CDT
Astronomical Twilight 3:52 AM CDT 9:52 PM CDT
Moon 8:53 PM CDT (5/25) 6:05 AM CDT (5/25)
Length of Visible Light 15h 25m
Length of Day
14h 25m
Full, 100% of the Moon is Illuminated
May 25
Full
May 31
Last Quarter
Jun 8
New
Jun 16
First Quarter
Jun 23
Full

Hourly Weather History & Observations

Time (CDT) Temp. Dew Point Humidity Pressure Visibility Wind Dir Wind Speed Gust Speed Precip Events Conditions
12:15 AM 50.7 °F 49.1 °F 94% 30.30 in 10.0 mi Calm Calm - N/A   Clear
12:35 AM 50.2 °F 48.4 °F 94% 30.29 in 10.0 mi Calm Calm - N/A   Clear
12:55 AM 50.4 °F 48.4 °F 93% 30.28 in 10.0 mi Calm Calm - N/A   Clear
1:15 AM 49.6 °F 48.4 °F 95% 30.28 in 10.0 mi Calm Calm - N/A   Clear
1:35 AM 48.9 °F 47.8 °F 96% 30.28 in 10.0 mi Calm Calm - N/A   Clear
1:55 AM 48.9 °F 48.0 °F 97% 30.28 in 10.0 mi Calm Calm - N/A   Clear
2:15 AM 48.9 °F 48.2 °F 97% 30.28 in 10.0 mi Calm Calm - N/A   Clear
2:35 AM 48.2 °F 47.8 °F 99% 30.28 in 10.0 mi Calm Calm - N/A   Clear
2:55 AM 48.4 °F 47.5 °F 97% 30.28 in 10.0 mi Calm Calm - N/A   Clear
3:15 AM 47.5 °F 47.3 °F 99% 30.29 in 10.0 mi Calm Calm - N/A   Clear
3:35 AM 47.1 °F 47.1 °F 100% 30.28 in 10.0 mi Calm Calm - N/A   Clear
3:55 AM 46.8 °F 46.8 °F 100% 30.28 in 10.0 mi Calm Calm - N/A   Clear
4:15 AM 46.8 °F 46.8 °F 100% 30.29 in 10.0 mi Calm Calm - N/A   Clear
4:35 AM 46.8 °F 46.8 °F 100% 30.28 in 10.0 mi Calm Calm - N/A   Clear
4:55 AM 46.0 °F 46.0 °F 100% 30.26 in 10.0 mi Calm Calm - N/A   Clear
5:15 AM 46.4 °F 46.4 °F 100% 30.27 in 10.0 mi Calm Calm - N/A   Clear
5:35 AM 46.4 °F 46.4 °F 100% 30.28 in 10.0 mi Calm Calm - N/A   Clear
5:55 AM 45.9 °F 45.9 °F 100% 30.29 in 7.0 mi Calm Calm - N/A   Clear
6:15 AM 46.6 °F 46.6 °F 100% 30.30 in 10.0 mi Calm Calm - N/A   Clear
6:35 AM 48.2 °F 48.2 °F 100% 30.31 in 10.0 mi Calm Calm - N/A   Clear
6:55 AM 50.2 °F 49.8 °F 99% 30.32 in 10.0 mi Calm Calm - N/A   Clear
7:15 AM 53.1 °F 51.1 °F 93% 30.33 in 10.0 mi Calm Calm - N/A   Clear
7:35 AM 55.6 °F 50.7 °F 84% 30.34 in 10.0 mi Calm Calm - N/A   Clear
7:55 AM 57.7 °F 49.8 °F 75% 30.35 in 10.0 mi Calm Calm - N/A   Clear
8:15 AM 59.2 °F 49.3 °F 70% 30.35 in 10.0 mi Calm Calm - N/A   Clear
8:35 AM 61.2 °F 49.8 °F 66% 30.35 in 10.0 mi ESE 3.5 mph - N/A   Clear
8:55 AM 62.6 °F 49.5 °F 62% 30.34 in 10.0 mi Calm Calm - N/A   Clear
9:15 AM 64.6 °F 49.3 °F 58% 30.35 in 10.0 mi ESE 4.6 mph - N/A   Clear
9:35 AM 65.3 °F 47.7 °F 53% 30.34 in 10.0 mi SE 3.5 mph - N/A   Clear
9:55 AM 66.4 °F 48.4 °F 52% 30.34 in 10.0 mi ESE 4.6 mph - N/A   Clear
10:15 AM 67.1 °F 47.3 °F 49% 30.33 in 10.0 mi ESE 6.9 mph - N/A   Clear
10:35 AM 68.0 °F 47.3 °F 47% 30.32 in 10.0 mi ESE 4.6 mph - N/A   Clear
10:55 AM 68.5 °F 47.7 °F 47% 30.32 in 10.0 mi SE 3.5 mph - N/A   Clear
11:15 AM 68.9 °F 45.1 °F 42% 30.31 in 10.0 mi SE 3.5 mph - N/A   Clear
11:35 AM 70.2 °F 46.4 °F 43% 30.31 in 10.0 mi SSE 4.6 mph - N/A   Clear
11:55 AM 70.9 °F 47.5 °F 43% 30.32 in 10.0 mi Calm Calm - N/A   Clear
12:15 PM 71.2 °F 47.3 °F 42% 30.31 in 10.0 mi SSE 4.6 mph - N/A   Clear
12:35 PM 72.3 °F 46.0 °F 39% 30.30 in 10.0 mi ESE 4.6 mph - N/A   Clear
12:55 PM 72.7 °F 46.4 °F 39% 30.29 in 10.0 mi South 4.6 mph - N/A   Clear
1:15 PM 73.0 °F 47.1 °F 40% 30.29 in 10.0 mi SE 5.8 mph - N/A   Clear
1:35 PM 73.4 °F 44.8 °F 36% 30.27 in 10.0 mi East 3.5 mph - N/A   Clear
1:55 PM 74.1 °F 46.8 °F 38% 30.27 in 10.0 mi SE 5.8 mph - N/A   Clear
2:15 PM 74.7 °F 46.0 °F 36% 30.27 in 10.0 mi Calm Calm - N/A   Clear
2:35 PM 73.9 °F 47.3 °F 39% 30.28 in 10.0 mi SSW 3.5 mph - N/A   Clear
2:55 PM 74.7 °F 46.4 °F 37% 30.27 in 10.0 mi NE 4.6 mph - N/A   Clear
3:15 PM 73.8 °F 45.9 °F 37% 30.26 in 10.0 mi Calm Calm - N/A   Clear
3:35 PM 75.9 °F 46.4 °F 35% 30.25 in 10.0 mi Calm Calm - N/A   Clear
3:55 PM 76.3 °F 45.3 °F 33% 30.24 in 10.0 mi ESE 3.5 mph - N/A   Clear
4:15 PM 75.6 °F 46.4 °F 35% 30.24 in 10.0 mi SE 3.5 mph - N/A   Clear
4:35 PM 75.7 °F 47.3 °F 36% 30.24 in 10.0 mi East 4.6 mph - N/A   Clear
4:55 PM 75.4 °F 47.8 °F 38% 30.22 in 10.0 mi ESE 4.6 mph - N/A   Clear
5:15 PM 74.7 °F 46.9 °F 37% 30.20 in 10.0 mi ESE 5.8 mph - N/A   Clear
5:35 PM 74.3 °F 46.9 °F 38% 30.18 in 10.0 mi ESE 6.9 mph - N/A   Clear
5:55 PM 73.9 °F 46.8 °F 38% 30.20 in 10.0 mi East 3.5 mph - N/A   Clear
6:15 PM 74.7 °F 46.4 °F 37% 30.19 in 10.0 mi SE 4.6 mph - N/A   Clear
6:35 PM 73.4 °F 48.2 °F 41% 30.17 in 10.0 mi SSE 6.9 mph - N/A   Mostly Cloudy
6:55 PM 72.9 °F 47.3 °F 40% 30.17 in 10.0 mi SE 4.6 mph - N/A   Scattered Clouds
7:15 PM 72.0 °F 47.7 °F 42% 30.16 in 10.0 mi ESE 3.5 mph - N/A   Clear
7:35 PM 70.9 °F 49.1 °F 46% 30.17 in 10.0 mi Calm Calm - N/A   Clear
7:55 PM 67.8 °F 52.0 °F 57% 30.16 in 10.0 mi Calm Calm - N/A   Clear
8:15 PM 67.1 °F 52.3 °F 59% 30.16 in 10.0 mi Calm Calm - N/A   Clear
8:35 PM 65.8 °F 51.3 °F 59% 30.15 in 10.0 mi Calm Calm - N/A   Clear
8:55 PM 65.5 °F 51.4 °F 60% 30.15 in 10.0 mi Calm Calm - N/A   Clear
9:15 PM 64.6 °F 51.1 °F 62% 30.16 in 10.0 mi Calm Calm - N/A   Clear
9:35 PM 62.2 °F 52.9 °F 71% 30.17 in 10.0 mi Calm Calm - N/A   Clear
9:55 PM 61.9 °F 52.7 °F 72% 30.18 in 10.0 mi Calm Calm - N/A   Clear
10:15 PM 61.9 °F 53.8 °F 75% 30.19 in 10.0 mi Calm Calm - N/A   Clear
10:35 PM 61.0 °F 54.3 °F 79% 30.19 in 10.0 mi Calm Calm - N/A   Clear
10:55 PM 59.7 °F 53.6 °F 80% 30.18 in 10.0 mi Calm Calm - N/A   Mostly Cloudy
11:15 PM 59.7 °F 54.5 °F 83% 30.19 in 10.0 mi Calm Calm - N/A   Scattered Clouds
11:35 PM 59.4 °F 53.8 °F 82% 30.19 in 10.0 mi Calm Calm - N/A   Scattered Clouds
11:55 PM 59.4 °F 54.5 °F 84% 30.19 in 10.0 mi Calm Calm - N/A   Overcast